Hourly Weather Petropavlovka

Today, 14 August, Friday

Time Temperature Precipitation Wind Pressure Humidity
00:00 +14°C° 0.2 mm 5 mps 740 mmHg 96%
01:00 +14°C° 0.2 mm 5 mps 740 mmHg 96%
02:00 +14°C° 0.2 mm 5 mps 740 mmHg 96%
03:00 +13°C° 0.3 mm 5 mps 741 mmHg 96%
04:00 +13°C° 0.3 mm 5 mps 741 mmHg 96%
05:00 +13°C° 0 mm 4 mps 741 mmHg 97%
06:00 +13°C° 0.5 mm 4 mps 741 mmHg 97%
07:00 +13°C° 0.5 mm 4 mps 742 mmHg 97%
08:00 +13°C° 0.5 mm 4 mps 742 mmHg 96%
09:00 +13°C° 0.3 mm 4 mps 742 mmHg 96%
10:00 +13°C° 0.3 mm 5 mps 742 mmHg 96%
11:00 +13°C° 0 mm 5 mps 742 mmHg 96%
12:00 +13°C° 0.4 mm 5 mps 743 mmHg 96%
13:00 +12°C° 0.4 mm 5 mps 743 mmHg 96%
14:00 +12°C° 0.4 mm 5 mps 743 mmHg 95%
15:00 +12°C° 0.9 mm 5 mps 744 mmHg 96%
16:00 +12°C° 0.9 mm 5 mps 744 mmHg 96%
17:00 +12°C° 0 mm 4 mps 745 mmHg 97%
18:00 +12°C° 0 mm 4 mps 745 mmHg 97%
19:00 +12°C° 0 mm 4 mps 745 mmHg 96%
20:00 +12°C° 0 mm 4 mps 745 mmHg 96%
21:00 +11°C° 0.1 mm 4 mps 745 mmHg 96%
22:00 +11°C° 0.1 mm 4 mps 746 mmHg 96%
23:00 +11°C° 0.1 mm 4 mps 746 mmHg 96%

Tomorrow, 15 August, Saturday

Time Temperature Precipitation Wind Pressure Humidity
00:00 +11°C° 0 mm 3 mps 746 mmHg 96%
01:00 +11°C° 0 mm 3 mps 746 mmHg 96%
02:00 +11°C° 0 mm 3 mps 746 mmHg 96%
03:00 +11°C° 0 mm 3 mps 746 mmHg 96%
04:00 +11°C° 0 mm 3 mps 747 mmHg 96%
05:00 +11°C° 0 mm 3 mps 747 mmHg 96%
06:00 +11°C° 0 mm 3 mps 747 mmHg 95%
07:00 +12°C° 0 mm 3 mps 747 mmHg 94%
08:00 +12°C° 0 mm 3 mps 747 mmHg 93%
09:00 +13°C° 0 mm 3 mps 748 mmHg 90%
10:00 +14°C° 0 mm 3 mps 748 mmHg 86%
11:00 +14°C° 0 mm 3 mps 748 mmHg 83%
12:00 +16°C° 0 mm 3 mps 748 mmHg 77%
13:00 +18°C° 0 mm 3 mps 748 mmHg 71%
14:00 +19°C° 0 mm 2 mps 748 mmHg 65%
15:00 +19°C° 0 mm 2 mps 748 mmHg 65%
16:00 +19°C° 0 mm 2 mps 749 mmHg 64%
17:00 +19°C° 0 mm 2 mps 749 mmHg 64%
18:00 +17°C° 0 mm 2 mps 749 mmHg 69%
19:00 +15°C° 0 mm 2 mps 749 mmHg 74%
20:00 +14°C° 0 mm 1 mps 749 mmHg 79%
21:00 +13°C° 0 mm 1 mps 749 mmHg 81%
22:00 +12°C° 0 mm 1 mps 749 mmHg 82%
23:00 +11°C° 0 mm 0 mps 749 mmHg 84%

Day after tomorrow, 16 August, Sunday

Time Temperature Precipitation Wind Pressure Humidity
00:00 +11°C° 0 mm 1 mps 749 mmHg 86%
01:00 +11°C° 0 mm 1 mps 749 mmHg 87%
02:00 +11°C° 0 mm 1 mps 749 mmHg 89%
03:00 +10°C° 0 mm 1 mps 749 mmHg 90%
04:00 +10°C° 0 mm 1 mps 749 mmHg 91%
05:00 +10°C° 0 mm 1 mps 749 mmHg 91%
06:00 +12°C° 0 mm 1 mps 749 mmHg 86%
07:00 +14°C° 0 mm 2 mps 749 mmHg 80%
08:00 +16°C° 0 mm 2 mps 749 mmHg 75%
09:00 +18°C° 0 mm 2 mps 749 mmHg 69%
10:00 +19°C° 0 mm 2 mps 749 mmHg 63%
11:00 +21°C° 0 mm 2 mps 748 mmHg 57%
12:00 +21°C° 0 mm 2 mps 748 mmHg 55%
13:00 +23°C° 0 mm 2 mps 748 mmHg 53%
14:00 +22°C° 0 mm 3 mps 748 mmHg 51%
15:00 +22°C° 0 mm 3 mps 748 mmHg 54%
16:00 +21°C° 0 mm 3 mps 747 mmHg 58%
17:00 +21°C° 0 mm 3 mps 747 mmHg 61%
18:00 +19°C° 0 mm 3 mps 747 mmHg 68%
19:00 +17°C° 0 mm 3 mps 747 mmHg 74%
20:00 +14°C° 0 mm 4 mps 746 mmHg 81%
21:00 +13°C° 0 mm 4 mps 746 mmHg 82%
22:00 +13°C° 0 mm 4 mps 746 mmHg 84%
23:00 +12°C° 0 mm 4 mps 746 mmHg 85%

17 August, Monday

Time Temperature Precipitation Wind Pressure Humidity
00:00 +11°C° 0 mm 4 mps 745 mmHg 88%
01:00 +11°C° 0 mm 3 mps 745 mmHg 90%
02:00 +10°C° 0 mm 3 mps 744 mmHg 92%
03:00 +10°C° 0 mm 3 mps 744 mmHg 93%
04:00 +10°C° 0 mm 3 mps 744 mmHg 94%
05:00 +10°C° 0 mm 4 mps 743 mmHg 95%
06:00 +12°C° 0 mm 4 mps 743 mmHg 90%
07:00 +14°C° 0 mm 5 mps 743 mmHg 84%
08:00 +16°C° 0 mm 5 mps 743 mmHg 79%
09:00 +17°C° 0 mm 5 mps 742 mmHg 75%
10:00 +19°C° 0 mm 6 mps 742 mmHg 72%
11:00 +21°C° 0 mm 6 mps 742 mmHg 68%
12:00 +21°C° 0.1 mm 6 mps 741 mmHg 67%
13:00 +22°C° 0.1 mm 6 mps 741 mmHg 66%
14:00 +22°C° 0.1 mm 6 mps 740 mmHg 65%
15:00 +21°C° 0.7 mm 5 mps 740 mmHg 73%
16:00 +19°C° 0.7 mm 5 mps 739 mmHg 81%
17:00 +18°C° 0.7 mm 4 mps 739 mmHg 90%
18:00 +18°C° 1.6 mm 4 mps 739 mmHg 90%
19:00 +17°C° 1.6 mm 4 mps 738 mmHg 91%
20:00 +17°C° 1.6 mm 4 mps 738 mmHg 91%
21:00 +16°C° 3.1 mm 3 mps 738 mmHg 93%
22:00 +16°C° 3.1 mm 2 mps 737 mmHg 95%
23:00 +15°C° 3.1 mm 1 mps 737 mmHg 96%

18 August, Tuesday

Time Temperature Precipitation Wind Pressure Humidity
00:00 +15°C° 1 mm 2 mps 737 mmHg 97%
01:00 +15°C° 1 mm 2 mps 737 mmHg 97%
02:00 +15°C° 1 mm 2 mps 736 mmHg 98%
03:00 +14°C° 0 mm 2 mps 736 mmHg 97%
04:00 +13°C° 0 mm 3 mps 736 mmHg 97%
05:00 +12°C° 0 mm 3 mps 736 mmHg 96%
06:00 +13°C° 0 mm 3 mps 736 mmHg 92%
07:00 +16°C° 0 mm 3 mps 736 mmHg 88%
08:00 +17°C° 0 mm 2 mps 736 mmHg 84%
09:00 +18°C° 0.2 mm 3 mps 736 mmHg 78%
10:00 +20°C° 0.2 mm 3 mps 736 mmHg 72%
11:00 +21°C° 0.2 mm 3 mps 736 mmHg 66%
12:00 +21°C° 0.9 mm 4 mps 736 mmHg 67%
13:00 +21°C° 0.9 mm 4 mps 736 mmHg 68%
14:00 +21°C° 0.9 mm 4 mps 736 mmHg 69%
15:00 +21°C° 0.3 mm 4 mps 736 mmHg 71%
16:00 +20°C° 0.3 mm 3 mps 735 mmHg 73%
17:00 +20°C° 0.3 mm 2 mps 735 mmHg 75%
18:00 +18°C° 0.7 mm 2 mps 735 mmHg 80%
19:00 +17°C° 0.7 mm 2 mps 735 mmHg 84%
20:00 +15°C° 0.7 mm 2 mps 736 mmHg 89%
21:00 +13°C° 0 mm 3 mps 736 mmHg 89%
22:00 +12°C° 0 mm 3 mps 735 mmHg 90%
23:00 +12°C° 0 mm 3 mps 735 mmHg 90%

19 August, Wednesday

Time Temperature Precipitation Wind Pressure Humidity
00:00 +11°C° 0 mm 3 mps 735 mmHg 92%
01:00 +11°C° 0 mm 3 mps 735 mmHg 93%
02:00 +11°C° 0 mm 3 mps 735 mmHg 95%
03:00 +11°C° 0 mm 3 mps 735 mmHg 95%
04:00 +11°C° 0 mm 3 mps 735 mmHg 95%
05:00 +10°C° 0 mm 3 mps 736 mmHg 95%
06:00 +11°C° 0.1 mm 3 mps 736 mmHg 93%
07:00 +12°C° 0.1 mm 3 mps 736 mmHg 91%
08:00 +13°C° 0.1 mm 4 mps 736 mmHg 89%
09:00 +15°C° 0.2 mm 4 mps 736 mmHg 84%
10:00 +17°C° 0.2 mm 4 mps 736 mmHg 80%
11:00 +17°C° 0.2 mm 5 mps 736 mmHg 76%
12:00 +19°C° 0.6 mm 5 mps 736 mmHg 75%
13:00 +19°C° 0.6 mm 5 mps 736 mmHg 75%
14:00 +19°C° 0.6 mm 5 mps 736 mmHg 74%
15:00 +19°C° 0.6 mm 5 mps 736 mmHg 76%
16:00 +19°C° 0.6 mm 4 mps 735 mmHg 78%
17:00 +18°C° 0.6 mm 3 mps 735 mmHg 80%
18:00 +17°C° 0.1 mm 3 mps 735 mmHg 84%
19:00 +16°C° 0.1 mm 3 mps 736 mmHg 88%
20:00 +13°C° 0.1 mm 3 mps 736 mmHg 91%
21:00 +13°C° 0 mm 3 mps 736 mmHg 93%
22:00 +12°C° 0 mm 3 mps 735 mmHg 94%
23:00 +12°C° 0 mm 3 mps 735 mmHg 96%
Show more